Flag for U.S.A. Weather past 2 weeks in Provo, Utah, U.S.A.

Now
48 °F

Clear.


Feels Like: 43 °F
Forecast: 48 / 71 °F
Wind: 12 mph from Southeast

Location: Provo Municipal

Current Time: May 27, 2015 at 6:33:06 AM

Latest Report: May 27, 2015 at 5:55 AM


Visibility: 10 mi

Pressure: 30.08 "Hg

Humidity: 82%

Dew point: 43 °F

Location of ProvoLocation

Historic Weather in Provo — Graph

°F

Provo temperature yesterday

Maximum temperature yesterday: 64 °F (at 3:54 PM)
Minimum temperature yesterday: 52 °F (at 12:35 AM)
Average temperature yesterday: 55 °F

Past Weeks' High & Low Weather Summary

 TemperatureHumidityPressure
High77 °F (May 12, 1:55 PM)93% (May 17, 1:35 AM)30.11 "Hg (May 17, 1:35 AM)
Low39 °F (May 16, 5:35 AM)19% (May 12, 1:55 PM)29.74 "Hg (May 14, 2:50 PM)
Average53 °F66%29.94 "Hg
* Reported May 12 5:15 AM — May 27 5:35 AM, Provo, Weather by CustomWeather, © 2015

Note: Actual official high and low records may vary slightly from our data, if they occured in-between our weather recording intervals... More about our weather records

Advertising

Provo weather history for previous 24 hours

 ConditionsComfort  
Time TempWeatherWind HumidityBarometerVisibility
5:35 AM
Wed, May 27
48 °FClear.12 mph82%30.08 "Hg10 mi
5:15 AM48 °FClear.9 mph82%30.08 "Hg10 mi
4:55 AM46 °FClear.5 mph93%30.08 "Hg10 mi
4:35 AM46 °FClear.3 mph82%30.09 "Hg10 mi
4:15 AM48 °FClear.5 mph82%30.08 "Hg10 mi
3:55 AM48 °FClear.6 mph82%30.08 "Hg10 mi
3:35 AM48 °FClear.5 mph82%30.09 "Hg10 mi
3:15 AM50 °FClear.6 mph82%30.09 "Hg10 mi
2:55 AM48 °FClear.7 mph82%30.09 "Hg10 mi
2:35 AM48 °FClear.7 mph87%30.09 "Hg10 mi
2:15 AM48 °FClear.5 mph82%30.09 "Hg10 mi
1:55 AM48 °FClear.3 mph87%30.09 "Hg10 mi
1:35 AM50 °FClear.5 mph82%30.10 "Hg10 mi
1:15 AM50 °FClear.3 mph82%30.11 "Hg10 mi
12:55 AM52 °FClear.5 mph77%30.11 "Hg10 mi
12:35 AM52 °FClear.6 mph82%30.11 "Hg10 mi
12:15 AM52 °FPassing clouds.8 mph77%30.11 "Hg10 mi
11:55 PM
Tue, May 26
52 °FPassing clouds.8 mph82%30.11 "Hg10 mi
11:35 PM52 °FPassing clouds.6 mph82%30.11 "Hg10 mi
11:15 PM52 °FPassing clouds.No wind82%30.11 "Hg10 mi
10:55 PM52 °FPassing clouds.6 mph77%30.11 "Hg10 mi
10:35 PM52 °FPassing clouds.6 mph77%30.10 "Hg10 mi
9:35 PM52 °FSunny.3 mph82%30.07 "Hg10 mi
8:47 PM54 °FPartly sunny.No wind82%30.06 "Hg10 mi
7:47 PM54 °FScattered showers. Partly sunny.9 mph77%30.05 "Hg10 mi
6:47 PM59 °FScattered showers. Partly sunny.No wind77%30.05 "Hg10 mi
5:01 PM61 °FScattered showers. Partly sunny.9 mph72%30.02 "Hg10 mi
4:47 PM61 °FThunderstorms. Partly sunny.13 mph63%30.02 "Hg10 mi
3:54 PM64 °FScattered showers. Partly sunny.6 mph52%29.99 "Hg15 mi
2:47 PM63 °FPartly sunny.6 mph56%30.03 "Hg15 mi
1:59 PM59 °FPartly sunny.6 mph68%30.05 "Hg15 mi
12:57 PM55 °FScattered showers. More clouds than sun.5 mph77%30.09 "Hg15 mi
11:59 AM54 °FLight rain. Cloudy.3 mph82%30.09 "Hg15 mi
10:59 AM54 °FLight rain. Mostly cloudy.9 mph82%30.09 "Hg15 mi
9:50 AM54 °FLight rain. Cloudy.9 mph82%30.09 "Hg15 mi
8:53 AM55 °FScattered showers. More clouds than sun.7 mph72%30.07 "Hg15 mi
7:49 AM54 °FScattered showers. Partly sunny.10 mph82%30.06 "Hg15 mi
6:49 AM54 °FScattered showers. Mostly cloudy.10 mph77%30.05 "Hg15 mi
6:35 AM54 °FOvercast.10 mph77%30.04 "Hg10 mi
6:15 AM54 °FPassing clouds.7 mph72%30.04 "Hg10 mi
Weather by CustomWeather, © 2015

See weather overviewHow to use our weather pages